Flughafen Düsseldorf

Aus VATSIM Germany
Dies ist die bestätigte sowie die neueste Version dieser Seite.
Wechseln zu:Navigation, Suche
UnderCon icon.svg.pngDieser Artikel ist noch im Aufbau. Der Artikel kann daher unvollständig sein oder Fehler enthalten!


Düsseldorf
ICAO / IATA EDDL / DUS
Koordinaten N51°17′22″  E006°46′0″
Höhe 45 m / 147 ft
Wetter EDDL 190350Z 16009KT 9999 BKN016 04/02 Q1029 NOSIG
Pisten
Platzfrequenzen
Nur für Flugsimulationszwecke!

.


Informationen für Piloten und Lotsen
Pilotenbriefing

Standard Operating Procedures (SOP)

Letters of Agreement (LoAs)

Airport Charts


Vorlage:Navigationsleiste Flughäfen EDLL